GW3793 Weather Reports


Display with metric or nautical units.
time (UTC)temp
F
wind
direction
speed
MPH
gust
MPH
rain 1hr
in
rain 24hr
in
rain mn
in
humidity
%
barometer
mb
20260507092017 43 16 1.0 3.0 0.00 0.00 0.00 49 1015.6
20260507090903 44 29 0.0 2.0 0.00 0.00 0.00 48 1015.3
20260507090004 44 7 0.0 2.0 0.00 0.00 0.00 48 1015.5
20260507085403 45 31 0.0 2.0 0.00 0.00 0.00 47 1015.1
20260507084503 46 41 0.0 2.0 0.00 0.00 0.00 45 1014.9
20260507083603 47 46 0.0 2.0 0.00 0.00 0.00 44 1014.9
20260507082703 47 147 0.0 2.0 0.00 0.00 0.00 43 1014.7
20260507082017 48 172 0.0 2.0 0.00 0.00 0.00 43 1014.6
20260507081118 48 260 1.0 2.0 0.00 0.00 0.00 43 1014.9
20260507080003 49 271 1.0 3.0 0.00 0.00 0.00 42 1014.7
20260507075617 49 285 1.0 3.0 0.00 0.00 0.00 42 1014.7
20260507074503 48 282 1.0 3.0 0.00 0.00 0.00 44 1014.7
20260507073603 47 279 1.0 2.0 0.00 0.00 0.00 46 1014.6
20260507072703 46 288 1.0 2.0 0.00 0.00 0.00 48 1014.4
20260507072016 46 292 1.0 2.0 0.00 0.00 0.00 48 1014.6
20260507070903 45 295 1.0 2.0 0.00 0.00 0.00 49 1014.4
20260507070217 45 311 1.0 2.0 0.00 0.00 0.00 50 1014.3
20260507065619 45 335 0.0 2.0 0.00 0.00 0.00 50 1014.1
20260507064504 45 11 0.0 2.0 0.00 0.00 0.00 49 1014.0
20260507063817 46 23 0.0 2.0 0.00 0.00 0.00 49 1013.7
20260507062703 46 15 0.0 2.0 0.00 0.00 0.00 49 1014.1
20260507061803 46 19 0.0 2.0 0.00 0.00 0.00 48 1013.9
20260507060903 47 14 0.0 1.0 0.00 0.00 0.00 47 1013.8
20260507060003 48 12 0.0 2.0 0.00 0.00 0.00 47 1013.5
20260507055403 48 17 1.0 2.0 0.00 0.00 0.00 46 1013.5
20260507054503 49 22 0.0 2.0 0.00 0.00 0.00 45 1013.3
20260507053603 49 19 0.0 2.0 0.00 0.00 0.00 45 1013.3
20260507052703 50 14 0.0 1.0 0.00 0.00 0.00 45 1013.1
20260507051803 50 22 0.0 2.0 0.00 0.00 0.00 44 1013.0
20260507050903 51 12 0.0 1.0 0.00 0.00 0.00 42 1013.2
20260507050218 52 27 0.0 2.0 0.00 0.00 0.00 41 1012.9
20260507045403 53 37 0.0 2.0 0.00 0.00 0.00 40 1012.8
20260507044717 53 216 0.0 2.0 0.00 0.00 0.00 40 1013.0
20260507043603 54 236 0.0 2.0 0.00 0.00 0.00 39 1012.6
20260507042703 54 258 0.0 2.0 0.00 0.00 0.00 38 1012.3
20260507041803 55 275 0.0 1.0 0.00 0.00 0.00 38 1012.2
20260507040903 57 20 0.0 2.0 0.00 0.00 0.00 36 1011.9
20260507040004 58 210 0.0 1.0 0.00 0.00 0.00 35 1011.6
20260507035403 59 213 0.0 2.0 0.00 0.00 0.00 34 1011.7
20260507034503 60 197 0.0 2.0 0.00 0.00 0.00 34 1011.5
20260507033603 60 229 1.0 3.0 0.00 0.00 0.00 35 1011.9
20260507032703 61 25 0.0 4.0 0.00 0.00 0.00 34 1011.6
20260507031803 62 274 0.0 2.0 0.00 0.00 0.00 34 1011.2
20260507030903 63 255 1.0 3.0 0.00 0.00 0.00 34 1011.5
20260507030003 63 271 1.0 3.0 0.00 0.00 0.00 33 1011.3
20260507025403 64 269 1.0 4.0 0.00 0.00 0.00 33 1011.0
20260507024503 64 296 2.0 8.0 0.00 0.00 0.00 32 1011.1
20260507023818 64 277 1.0 8.0 0.00 0.00 0.00 32 1011.2
20260507022703 65 311 1.0 9.0 0.00 0.00 0.00 32 1011.1
20260507021803 66 255 1.0 6.0 0.00 0.00 0.00 31 1011.1
20260507020903 67 283 2.0 7.0 0.00 0.00 0.00 30 1010.8
20260507020217 67 272 2.0 7.0 0.00 0.00 0.00 29 1011.0
20260507015403 67 258 2.0 7.0 0.00 0.00 0.00 29 1011.1
20260507014503 67 291 1.0 6.0 0.00 0.00 0.00 30 1010.7
20260507013603 68 291 2.0 6.0 0.00 0.00 0.00 29 1010.7
20260507012704 68 278 2.0 8.0 0.00 0.00 0.00 29 1010.7
20260507011803 68 260 1.0 6.0 0.00 0.00 0.00 31 1010.7
20260507010903 68 277 2.0 7.0 0.00 0.00 0.00 30 1010.6
20260507010003 68 297 2.0 6.0 0.00 0.00 0.00 31 1010.8
20260507005616 68 274 2.0 6.0 0.00 0.00 0.00 31 1010.7
20260507004503 69 314 2.0 10.0 0.00 0.00 0.00 31 1010.6
20260507003603 69 285 2.0 10.0 0.00 0.00 0.00 31 1010.8
20260507002703 70 294 2.0 10.0 0.00 0.00 0.00 30 1011.0
20260507001803 70 293 2.0 7.0 0.00 0.00 0.00 30 1010.8
20260507000903 70 297 2.0 7.0 0.00 0.00 0.00 31 1010.6
20260507000003 71 297 2.0 6.0 0.00 0.00 0.00 29 1010.5
20260506235403 71 310 2.0 15.0 0.00 0.00 0.00 30 1010.5
20260506234503 70 306 2.0 7.0 0.00 0.00 0.00 29 1010.5
20260506233603 71 292 2.0 5.0 0.00 0.00 0.00 29 1010.5
20260506232703 71 287 2.0 7.0 0.00 0.00 0.00 29 1010.3
20260506231803 71 287 2.0 5.0 0.00 0.00 0.00 30 1010.6
20260506230903 72 263 2.0 5.0 0.00 0.00 0.00 30 1010.7
20260506230003 71 214 2.0 9.0 0.00 0.00 0.00 30 1010.7
20260506225403 71 28 2.0 6.0 0.00 0.00 0.00 30 1010.7
20260506224503 72 285 2.0 6.0 0.00 0.00 0.00 31 1010.6
20260506223603 72 312 2.0 8.0 0.00 0.00 0.00 31 1011.0
20260506222703 71 256 1.0 4.0 0.00 0.00 0.00 32 1010.8
20260506221803 71 266 1.0 4.0 0.00 0.00 0.00 32 1010.7
20260506220903 71 252 1.0 4.0 0.00 0.00 0.00 30 1011.1
20260506220003 71 256 2.0 7.0 0.00 0.00 0.00 31 1011.1
20260506215403 71 222 2.0 7.0 0.00 0.00 0.00 32 1011.0
20260506214503 71 287 2.0 6.0 0.00 0.00 0.00 31 1011.4
20260506213603 71 315 2.0 10.0 0.00 0.00 0.00 31 1011.3
20260506212703 70 327 2.0 6.0 0.00 0.00 0.00 32 1011.6
20260506211803 70 275 1.0 6.0 0.00 0.00 0.00 34 1011.7
20260506210904 70 270 1.0 5.0 0.00 0.00 0.00 34 1012.0
20260506210003 70 269 1.0 4.0 0.00 0.00 0.00 32 1011.6
20260506205403 71 213 2.0 6.0 0.00 0.00 0.00 33 1011.6
20260506204503 71 208 2.0 6.0 0.00 0.00 0.00 33 1011.6
20260506203603 71 225 2.0 6.0 0.00 0.00 0.00 33 1011.9
20260506202703 70 310 2.0 9.0 0.00 0.00 0.00 34 1012.2
20260506201803 71 251 2.0 6.0 0.00 0.00 0.00 34 1011.9
20260506200903 71 195 3.0 8.0 0.00 0.00 0.00 33 1011.9
20260506200003 70 209 2.0 6.0 0.00 0.00 0.00 32 1012.1
20260506195403 70 216 2.0 7.0 0.00 0.00 0.00 33 1012.3
20260506194503 69 256 2.0 6.0 0.00 0.00 0.00 35 1012.2
20260506193603 70 285 2.0 5.0 0.00 0.00 0.00 34 1012.4
20260506192703 70 167 3.0 12.0 0.00 0.00 0.00 35 1012.4
20260506192018 69 182 3.0 12.0 0.00 0.00 0.00 35 1012.1
20260506190903 68 215 2.0 6.0 0.00 0.00 0.00 37 1012.8
20260506190216 67 302 2.0 4.0 0.00 0.00 0.00 37 1012.8
20260506185403 66 164 3.0 6.0 0.00 0.00 0.00 37 1012.8
20260506184503 65 345 2.0 6.0 0.00 0.00 0.00 37 1013.3
20260506183603 65 276 2.0 6.0 0.00 0.00 0.00 37 1012.9
20260506182703 66 252 2.0 5.0 0.00 0.00 0.00 37 1013.0
20260506181803 66 282 2.0 7.0 0.00 0.00 0.00 37 1013.2
20260506181117 65 299 1.0 7.0 0.00 0.00 0.00 39 1013.1
20260506180004 65 246 2.0 5.0 0.00 0.00 0.00 40 1013.0
20260506175403 64 216 2.0 5.0 0.00 0.00 0.00 41 1013.2
20260506174717 64 236 2.0 4.0 0.00 0.00 0.00 41 1013.4
20260506173603 63 231 1.0 4.0 0.00 0.00 0.00 43 1013.2
20260506172703 62 285 1.0 4.0 0.00 0.00 0.00 41 1013.5
20260506171803 62 247 1.0 6.0 0.00 0.00 0.00 43 1013.4
20260506170903 62 235 1.0 6.0 0.00 0.00 0.00 45 1013.7
20260506170218 61 73 1.0 5.0 0.00 0.00 0.00 47 1013.7
20260506165403 61 19 2.0 7.0 0.00 0.00 0.00 46 1013.5
20260506164503 60 315 1.0 6.0 0.00 0.00 0.00 45 1013.7
20260506163818 60 275 1.0 5.0 0.00 0.00 0.00 48 1013.5
20260506162917 59 276 1.0 4.0 0.00 0.00 0.00 49 1013.9
20260506161803 58 234 1.0 4.0 0.00 0.00 0.00 50 1013.7
20260506160903 58 242 1.0 3.0 0.00 0.00 0.00 52 1013.9
20260506160003 57 251 1.0 3.0 0.00 0.00 0.00 53 1014.1
20260506155403 56 247 0.0 3.0 0.00 0.00 0.00 53 1013.8
20260506154503 56 234 1.0 3.0 0.00 0.00 0.00 54 1013.9
20260506153603 56 230 1.0 5.0 0.00 0.00 0.00 55 1014.0
20260506152703 55 234 0.0 5.0 0.00 0.00 0.00 56 1013.9
20260506151803 54 205 0.0 3.0 0.00 0.00 0.00 57 1013.9
20260506150903 54 234 0.0 2.0 0.00 0.00 0.00 58 1013.9
20260506150217 53 247 0.0 2.0 0.00 0.00 0.00 58 1014.0
20260506145403 53 231 0.0 2.0 0.00 0.00 0.00 59 1013.9
20260506144503 53 209 0.0 4.0 0.00 0.00 0.00 62 1014.1
20260506143603 51 167 0.0 2.0 0.00 0.00 0.00 68 1014.0
20260506142703 49 177 0.0 2.0 0.00 0.00 0.00 71 1013.7
20260506141803 48 216 0.0 1.0 0.00 0.00 0.00 72 1013.7
20260506140903 46 171 1.0 2.0 0.00 0.00 0.00 75 1013.9
20260506140004 44 167 0.0 2.0 0.00 0.00 0.00 76 1013.8
20260506135403 43 159 0.0 2.0 0.00 0.00 0.00 77 1013.8
20260506134717 42 143 0.0 2.0 0.00 0.00 0.00 77 1013.4
20260506133603 41 23 0.0 2.0 0.00 0.00 0.00 79 1013.7
20260506132703 41 136 0.0 1.0 0.00 0.00 0.00 79 1013.5
20260506131803 41 136 0.0 2.0 0.00 0.00 0.00 78 1013.7
20260506131117 40 121 0.0 2.0 0.00 0.00 0.00 77 1013.5
20260506130003 40 126 0.0 2.0 0.00 0.00 0.00 77 1013.4
20260506125403 40 0 0.0 0.0 0.00 0.00 0.00 77 1013.2
20260506124503 40 18 0.0 1.0 0.00 0.00 0.00 77 1013.4
20260506123603 40 35 0.0 1.0 0.00 0.00 0.00 77 1013.4
20260506122703 40 0 0.0 0.0 0.00 0.00 0.00 77 1013.4
20260506121803 40 0 0.0 0.0 0.00 0.00 0.00 76 1013.0
20260506120903 41 120 0.0 2.0 0.00 0.00 0.00 76 1013.2
20260506120003 41 113 0.0 2.0 0.00 0.00 0.00 75 1013.0
20260506115404 41 23 0.0 1.0 0.00 0.00 0.00 74 1013.4
20260506114503 41 21 0.0 1.0 0.00 0.00 0.00 74 1013.3
20260506113818 41 122 1.0 2.0 0.00 0.00 0.00 74 1013.3
20260506112704 41 19 0.0 1.0 0.00 0.00 0.00 73 1013.2
20260506111803 41 6 0.0 3.0 0.00 0.00 0.00 74 1013.2
20260506110903 41 218 0.0 1.0 0.00 0.00 0.00 72 1013.2
20260506110004 42 99 0.0 2.0 0.00 0.00 0.00 72 1012.8
20260506105403 42 79 0.0 2.0 0.00 0.00 0.00 73 1012.9
20260506104503 42 346 1.0 4.0 0.00 0.00 0.00 74 1012.9
20260506103603 42 354 0.0 4.0 0.00 0.00 0.00 74 1013.0
20260506102703 42 156 0.0 2.0 0.00 0.00 0.00 73 1013.0
20260506101803 43 140 0.0 1.0 0.00 0.00 0.00 70 1012.8
20260506100903 43 27 0.0 1.0 0.00 0.00 0.00 69 1012.9
20260506100004 43 101 0.0 2.0 0.00 0.00 0.00 69 1012.8
20260506095617 43 111 0.0 2.0 0.00 0.00 0.00 69 1013.0
20260506094503 43 2 0.0 2.0 0.00 0.00 0.00 69 1012.6
20260506093603 43 56 0.0 2.0 0.00 0.00 0.00 68 1012.9
20260506092703 44 163 0.0 2.0 0.00 0.00 0.00 66 1013.1